Weather History for KIRS - November, 2011

Change the Weather History Date:

Wednesday, November 2, 2011

  Actual Average (KHAI) Record (KHAI)
Temperature  
Mean Temperature 53 °F -  
Max Temperature 62 °F 58 °F 77 °F (1950)
Min Temperature 44 °F 39 °F 22 °F (2014)
Degree Days  
Heating Degree Days 12    
Growing Degree Days 3 (Base 50)    
Moisture  
Dew Point 38 °F    
Average Humidity 56    
Maximum Humidity 71    
Minimum Humidity 42    
Precipitation  
Precipitation 0.00 in - - ()
Sea Level Pressure  
Sea Level Pressure 30.10 in    
Wind  
Wind Speed 10 mph (SSW)    
Max Wind Speed 18 mph    
Max Gust Speed 22 mph    
Visibility 10 miles    
Events      
Averages and records for this station are not official NWS values.
T = Trace of Precipitation, MM = Missing Value Source: NWS Daily Summary

Daily Weather History Graph

Daily Weather History Graph

Search for Another Location

Airport or City:

Trip Planner

Search our weather history database for the weather conditions in past years. The results will help you decide how hot, cold, wet, or windy it might be!

Date:

Astronomy

Nov. 02, 2011 Rise Set
Actual Time 8:14 AM EDT 6:35 PM EDT
Civil Twilight 7:45 AM EDT 7:04 PM EDT
Nautical Twilight 7:13 AM EDT 7:36 PM EDT
Astronomical Twilight 6:40 AM EDT 8:09 PM EDT
Moon 2:34 PM EDT (11/2) 12:17 AM EDT (11/2)
Length of Visible Light 11h 18m
Length of Day
10h 20m
Waxing Crescent, 50% of the Moon is Illuminated
Nov 2
Waxing Crescent
Nov 2
First Quarter
Nov 10
Full
Nov 18
Last Quarter
Nov 25
New

Hourly Weather History & Observations

Time (EDT) Temp. Windchill Dew Point Humidity Pressure Visibility Wind Dir Wind Speed Gust Speed Precip Events Conditions
12:15 AM 50.0 °F - 37.4 °F 62% 30.14 in 10.0 mi South 8.1 mph - N/A   Clear
12:35 AM 50.0 °F - 37.4 °F 62% 30.13 in 10.0 mi South 9.2 mph - N/A   Clear
12:54 AM 48.2 °F - 37.4 °F 66% 30.13 in 10.0 mi South 9.2 mph - N/A   Clear
1:34 AM 48.2 °F - 37.4 °F 66% 30.13 in 10.0 mi South 10.4 mph - N/A   Clear
1:55 AM 48.2 °F - 37.4 °F 66% 30.13 in 10.0 mi South 10.4 mph - N/A   Clear
2:14 AM 48.2 °F - 35.6 °F 62% 30.14 in 10.0 mi South 8.1 mph - N/A   Clear
2:55 AM 46.4 °F 42.9 °F 35.6 °F 66% 30.14 in 10.0 mi South 6.9 mph - N/A   Clear
3:14 AM 46.4 °F 42.9 °F 35.6 °F 66% 30.14 in 10.0 mi South 6.9 mph - N/A   Clear
3:35 AM 46.4 °F 43.5 °F 35.6 °F 66% 30.15 in 10.0 mi South 5.8 mph - N/A   Clear
3:54 AM 44.6 °F 42.2 °F 35.6 °F 71% 30.15 in 10.0 mi South 4.6 mph - N/A   Clear
4:15 AM 44.6 °F 42.2 °F 35.6 °F 71% 30.15 in 10.0 mi SSW 4.6 mph - N/A   Clear
4:34 AM 44.6 °F 40.7 °F 35.6 °F 71% 30.15 in 10.0 mi South 6.9 mph - N/A   Clear
4:54 AM 46.4 °F 41.9 °F 35.6 °F 66% 30.15 in 10.0 mi South 9.2 mph - N/A   Clear
5:55 AM 44.6 °F 40.7 °F 35.6 °F 71% 30.16 in 10.0 mi South 6.9 mph - N/A   Clear
6:55 AM 44.6 °F 40.2 °F 33.8 °F 66% 30.16 in 10.0 mi South 8.1 mph - N/A   Clear
7:15 AM 44.6 °F 40.7 °F 33.8 °F 66% 30.15 in 10.0 mi South 6.9 mph - N/A   Clear
7:34 AM 44.6 °F 40.2 °F 33.8 °F 66% 30.14 in 10.0 mi South 8.1 mph - N/A   Clear
7:55 AM 44.6 °F 41.4 °F 33.8 °F 66% 30.14 in 10.0 mi South 5.8 mph - N/A   Clear
8:14 AM 44.6 °F 40.7 °F 33.8 °F 66% 30.14 in 10.0 mi SSW 6.9 mph - N/A   Clear
8:34 AM 46.4 °F 42.9 °F 35.6 °F 66% 30.15 in 10.0 mi South 6.9 mph - N/A   Clear
8:54 AM 46.4 °F 42.9 °F 35.6 °F 66% 30.15 in 10.0 mi South 6.9 mph - N/A   Clear
9:15 AM 46.4 °F 42.4 °F 35.6 °F 66% 30.16 in 10.0 mi South 8.1 mph - N/A   Clear
9:35 AM 48.2 °F - 35.6 °F 62% 30.16 in 10.0 mi SSW 6.9 mph - N/A   Clear
9:54 AM 50.0 °F - 35.6 °F 58% 30.15 in 10.0 mi SSW 8.1 mph - N/A   Clear
10:15 AM 51.8 °F - 35.6 °F 54% 30.15 in 10.0 mi SSW 10.4 mph - N/A   Clear
10:35 AM 53.6 °F - 37.4 °F 54% 30.14 in 10.0 mi SSW 13.8 mph - N/A   Clear
10:54 AM 53.6 °F - 37.4 °F 54% 30.14 in 10.0 mi SSW 12.7 mph 18.4 mph N/A   Clear
11:15 AM 55.4 °F - 37.4 °F 51% 30.13 in 10.0 mi SSW 15.0 mph 20.7 mph N/A   Clear
11:35 AM 57.2 °F - 39.2 °F 51% 30.13 in 10.0 mi SSW 15.0 mph - N/A   Clear
11:54 AM 57.2 °F - 39.2 °F 51% 30.12 in 10.0 mi SW 17.3 mph - N/A   Clear
12:15 PM 60.8 °F - 39.2 °F 45% 30.12 in 10.0 mi SSW 15.0 mph - N/A   Clear
12:34 PM 59.0 °F - 39.2 °F 48% 30.11 in 10.0 mi SSW 15.0 mph - N/A   Clear
12:55 PM 60.8 °F - 39.2 °F 45% 30.10 in 10.0 mi SSW 12.7 mph 19.6 mph N/A   Clear
1:15 PM 62.6 °F - 41.0 °F 45% 30.10 in 10.0 mi SSW 16.1 mph - N/A   Clear
1:34 PM 60.8 °F - 41.0 °F 48% 30.09 in 10.0 mi SSW 12.7 mph 19.6 mph N/A   Clear
1:55 PM 60.8 °F - 39.2 °F 45% 30.08 in 10.0 mi SSW 16.1 mph 19.6 mph N/A   Clear
2:14 PM 60.8 °F - 41.0 °F 48% 30.07 in 10.0 mi SSW 12.7 mph - N/A   Clear
2:34 PM 60.8 °F - 39.2 °F 45% 30.05 in 10.0 mi South 18.4 mph - N/A   Clear
2:55 PM 62.6 °F - 39.2 °F 42% 30.04 in 10.0 mi SSW 17.3 mph 21.9 mph N/A   Clear
3:14 PM 62.6 °F - 41.0 °F 45% 30.04 in 10.0 mi South 15.0 mph - N/A   Clear
3:35 PM 62.6 °F - 41.0 °F 45% 30.03 in 10.0 mi South 15.0 mph 20.7 mph N/A   Clear
3:55 PM 62.6 °F - 41.0 °F 45% 30.03 in 10.0 mi SSW 10.4 mph 21.9 mph N/A   Clear
4:14 PM 62.6 °F - 41.0 °F 45% 30.02 in 10.0 mi SSW 15.0 mph 18.4 mph N/A   Clear
4:35 PM 62.6 °F - 42.8 °F 48% 30.02 in 10.0 mi South 9.2 mph - N/A   Clear
4:55 PM 60.8 °F - 41.0 °F 48% 30.02 in 10.0 mi South 9.2 mph - N/A   Clear
5:14 PM 60.8 °F - 41.0 °F 48% 30.02 in 10.0 mi South 9.2 mph - N/A   Clear
5:35 PM 60.8 °F - 41.0 °F 48% 30.01 in 10.0 mi South 9.2 mph - N/A   Clear
5:55 PM 60.8 °F - 41.0 °F 48% 30.01 in 10.0 mi South 10.4 mph - N/A   Clear
6:15 PM 60.8 °F - 41.0 °F 48% 30.01 in 10.0 mi South 9.2 mph - N/A   Clear
6:34 PM 59.0 °F - 41.0 °F 51% 30.01 in 10.0 mi South 11.5 mph - N/A   Clear
6:54 PM 59.0 °F - 42.8 °F 55% 30.02 in 10.0 mi South 9.2 mph - N/A   Clear
7:15 PM 57.2 °F - 41.0 °F 55% 30.02 in 10.0 mi South 8.1 mph - N/A   Clear
7:34 PM 57.2 °F - 42.8 °F 59% 30.02 in 10.0 mi South 6.9 mph - N/A   Clear
7:55 PM 57.2 °F - 41.0 °F 55% 30.02 in 10.0 mi South 9.2 mph - N/A   Clear
8:14 PM 57.2 °F - 41.0 °F 55% 30.01 in 10.0 mi South 8.1 mph - N/A   Clear
8:35 PM 57.2 °F - 41.0 °F 55% 30.00 in 10.0 mi South 9.2 mph - N/A   Clear
8:55 PM 57.2 °F - 41.0 °F 55% 29.99 in 10.0 mi South 10.4 mph - N/A   Clear
9:14 PM 57.2 °F - 39.2 °F 51% 29.99 in 10.0 mi SSW 10.4 mph - N/A   Clear
9:35 PM 57.2 °F - 39.2 °F 51% 29.99 in 10.0 mi SSW 11.5 mph 17.3 mph N/A   Clear
9:55 PM 57.2 °F - 39.2 °F 51% 29.99 in 10.0 mi SSW 12.7 mph - N/A   Clear
10:15 PM 57.2 °F - 39.2 °F 51% 29.99 in 10.0 mi SSW 13.8 mph 18.4 mph N/A   Clear
10:35 PM 57.2 °F - 39.2 °F 51% 29.98 in 10.0 mi South 15.0 mph 18.4 mph N/A   Clear
10:54 PM 55.4 °F - 41.0 °F 58% 30.00 in 10.0 mi WSW 5.8 mph - N/A   Clear
11:15 PM 55.4 °F - 41.0 °F 58% 29.99 in 10.0 mi SSW 9.2 mph - N/A   Clear
11:35 PM 55.4 °F - 41.0 °F 58% 29.98 in 10.0 mi South 8.1 mph - N/A   Clear
11:55 PM 55.4 °F - 41.0 °F 58% 29.99 in 10.0 mi SSW 6.9 mph - N/A   Clear